When you browse on this site, cookies collect data to enhance your experience and personalize the content and advertising you see.
Visit our Privacy Policy to learn more. By continuing to use the site, you agree to this use of cookies and data.
  • In Hungary
  • List of Countries
  • For 7 days
  • Water Temperature
  • Weather Map
  • News
  • Weather Widgets
  • user-avatar
    Login

    Hourly Weather Biery

    Today, 15 September, Sunday

    Time Temperature Precipitation Wind Pressure Humidity
    00:00 +10°C° 0 mm 1 mps 739 mmHg 72%
    01:00 +10°C° 0 mm 1 mps 739 mmHg 74%
    02:00 +10°C° 0 mm 1 mps 738 mmHg 74%
    03:00 +9°C° 0 mm 1 mps 738 mmHg 75%
    04:00 +9°C° 0 mm 1 mps 738 mmHg 76%
    05:00 +10°C° 0 mm 1 mps 738 mmHg 73%
    06:00 +10°C° 0 mm 2 mps 737 mmHg 70%
    07:00 +12°C° 0 mm 2 mps 737 mmHg 68%
    08:00 +14°C° 0 mm 2 mps 737 mmHg 61%
    09:00 +16°C° 0 mm 3 mps 736 mmHg 54%
    10:00 +18°C° 0 mm 3 mps 736 mmHg 46%
    11:00 +19°C° 0 mm 4 mps 736 mmHg 46%
    12:00 +20°C° 0 mm 4 mps 735 mmHg 47%
    13:00 +21°C° 0 mm 5 mps 735 mmHg 47%
    14:00 +21°C° 0 mm 4 mps 734 mmHg 50%
    15:00 +21°C° 0 mm 4 mps 734 mmHg 53%
    16:00 +21°C° 0 mm 4 mps 733 mmHg 56%
    17:00 +19°C° 0 mm 4 mps 733 mmHg 62%
    18:00 +17°C° 0 mm 4 mps 733 mmHg 68%
    19:00 +16°C° 0 mm 3 mps 733 mmHg 74%
    20:00 +14°C° 0 mm 3 mps 732 mmHg 75%
    21:00 +14°C° 0 mm 3 mps 732 mmHg 76%
    22:00 +13°C° 0 mm 3 mps 732 mmHg 77%
    23:00 +13°C° 0 mm 3 mps 732 mmHg 78%

    Tomorrow, 16 September, Monday

    Time Temperature Precipitation Wind Pressure Humidity
    00:00 +13°C° 0 mm 3 mps 732 mmHg 78%
    01:00 +14°C° 0 mm 2 mps 732 mmHg 79%
    02:00 +14°C° 0 mm 2 mps 732 mmHg 81%
    03:00 +14°C° 0 mm 2 mps 731 mmHg 83%
    04:00 +13°C° 0 mm 2 mps 731 mmHg 85%
    05:00 +14°C° 0 mm 2 mps 731 mmHg 83%
    06:00 +15°C° 0 mm 1 mps 731 mmHg 81%
    07:00 +15°C° 0 mm 1 mps 731 mmHg 80%
    08:00 +18°C° 0 mm 1 mps 731 mmHg 74%
    09:00 +18°C° 0 mm 2 mps 731 mmHg 68%
    10:00 +19°C° 0 mm 2 mps 731 mmHg 62%
    11:00 +20°C° 0 mm 2 mps 731 mmHg 59%
    12:00 +21°C° 0 mm 2 mps 731 mmHg 55%
    13:00 +21°C° 0 mm 3 mps 730 mmHg 52%
    14:00 +21°C° 0 mm 2 mps 730 mmHg 57%
    15:00 +20°C° 0 mm 2 mps 730 mmHg 62%
    16:00 +19°C° 0 mm 2 mps 729 mmHg 68%
    17:00 +19°C° 0 mm 1 mps 729 mmHg 72%
    18:00 +18°C° 0 mm 1 mps 729 mmHg 76%
    19:00 +16°C° 0 mm 1 mps 728 mmHg 80%
    20:00 +16°C° 0.1 mm 1 mps 728 mmHg 79%
    21:00 +16°C° 0.1 mm 2 mps 728 mmHg 78%
    22:00 +16°C° 0.1 mm 2 mps 728 mmHg 78%
    23:00 +15°C° 0.5 mm 2 mps 728 mmHg 82%

    Day after tomorrow, 17 September, Tuesday

    Time Temperature Precipitation Wind Pressure Humidity
    00:00 +15°C° 0.5 mm 2 mps 728 mmHg 87%
    01:00 +14°C° 0.5 mm 2 mps 728 mmHg 92%
    02:00 +14°C° 1.3 mm 2 mps 728 mmHg 92%
    03:00 +14°C° 1.3 mm 2 mps 727 mmHg 93%
    04:00 +13°C° 1.3 mm 2 mps 727 mmHg 93%
    05:00 +13°C° 0.4 mm 2 mps 728 mmHg 92%
    06:00 +12°C° 0.4 mm 2 mps 728 mmHg 90%
    07:00 +12°C° 0.4 mm 2 mps 728 mmHg 89%
    08:00 +12°C° 0.1 mm 2 mps 728 mmHg 85%
    09:00 +12°C° 0.1 mm 2 mps 728 mmHg 82%
    10:00 +13°C° 0.1 mm 2 mps 729 mmHg 78%
    11:00 +13°C° 0 mm 2 mps 728 mmHg 73%
    12:00 +13°C° 0 mm 3 mps 728 mmHg 69%
    13:00 +14°C° 0 mm 3 mps 728 mmHg 65%
    14:00 +14°C° 0 mm 3 mps 727 mmHg 64%
    15:00 +14°C° 0 mm 4 mps 727 mmHg 63%
    16:00 +14°C° 0 mm 4 mps 727 mmHg 62%
    17:00 +13°C° 0 mm 4 mps 727 mmHg 64%
    18:00 +12°C° 0 mm 3 mps 727 mmHg 66%
    19:00 +11°C° 0 mm 3 mps 727 mmHg 67%
    20:00 +10°C° 0.1 mm 3 mps 727 mmHg 70%
    21:00 +10°C° 0.1 mm 3 mps 728 mmHg 73%
    22:00 +10°C° 0.1 mm 4 mps 728 mmHg 75%
    23:00 +8°C° 0.2 mm 4 mps 728 mmHg 77%

    18 September, Wednesday

    Time Temperature Precipitation Wind Pressure Humidity
    00:00 +7°C° 0.2 mm 4 mps 728 mmHg 78%
    01:00 +7°C° 0.2 mm 4 mps 728 mmHg 80%
    02:00 +6°C° 0 mm 4 mps 729 mmHg 82%
    03:00 +5°C° 0 mm 4 mps 729 mmHg 84%
    04:00 +5°C° 0 mm 3 mps 729 mmHg 86%
    05:00 +5°C° 0 mm 3 mps 729 mmHg 84%
    06:00 +5°C° 0 mm 4 mps 730 mmHg 82%
    07:00 +6°C° 0 mm 4 mps 730 mmHg 80%
    08:00 +6°C° 0 mm 4 mps 731 mmHg 76%
    09:00 +7°C° 0 mm 4 mps 731 mmHg 71%
    10:00 +8°C° 0 mm 4 mps 732 mmHg 66%
    11:00 +10°C° 0 mm 4 mps 732 mmHg 64%
    12:00 +10°C° 0 mm 4 mps 732 mmHg 61%
    13:00 +11°C° 0 mm 4 mps 732 mmHg 59%
    14:00 +11°C° 0.1 mm 4 mps 731 mmHg 59%
    15:00 +11°C° 0.1 mm 3 mps 731 mmHg 60%
    16:00 +11°C° 0.1 mm 3 mps 731 mmHg 61%
    17:00 +10°C° 0.1 mm 2 mps 732 mmHg 67%
    18:00 +8°C° 0.1 mm 2 mps 732 mmHg 74%
    19:00 +8°C° 0.1 mm 1 mps 732 mmHg 80%
    20:00 +8°C° 0.4 mm 1 mps 732 mmHg 82%
    21:00 +7°C° 0.4 mm 1 mps 733 mmHg 85%
    22:00 +6°C° 0.4 mm 2 mps 733 mmHg 87%
    23:00 +7°C° 0.3 mm 1 mps 733 mmHg 88%

    19 September, Thursday

    Time Temperature Precipitation Wind Pressure Humidity
    00:00 +7°C° 0.3 mm 1 mps 733 mmHg 88%
    01:00 +7°C° 0.3 mm 1 mps 733 mmHg 89%
    02:00 +6°C° 0.1 mm 1 mps 733 mmHg 89%
    03:00 +6°C° 0.1 mm 1 mps 734 mmHg 89%
    04:00 +6°C° 0.1 mm 1 mps 734 mmHg 90%
    05:00 +6°C° 0 mm 1 mps 734 mmHg 88%
    06:00 +7°C° 0 mm 1 mps 734 mmHg 86%
    07:00 +8°C° 0 mm 1 mps 734 mmHg 85%
    08:00 +8°C° 0 mm 2 mps 735 mmHg 79%
    09:00 +9°C° 0 mm 2 mps 735 mmHg 73%
    10:00 +12°C° 0 mm 2 mps 735 mmHg 67%
    11:00 +12°C° 0.1 mm 2 mps 735 mmHg 62%
    12:00 +13°C° 0.1 mm 2 mps 735 mmHg 56%
    13:00 +14°C° 0.1 mm 2 mps 735 mmHg 51%
    14:00 +13°C° 0.3 mm 3 mps 734 mmHg 56%
    15:00 +12°C° 0.3 mm 3 mps 734 mmHg 61%
    16:00 +11°C° 0.3 mm 3 mps 734 mmHg 66%
    17:00 +10°C° 0.2 mm 3 mps 734 mmHg 72%
    18:00 +9°C° 0.2 mm 2 mps 735 mmHg 78%
    19:00 +7°C° 0.2 mm 2 mps 735 mmHg 84%
    20:00 +7°C° 0.1 mm 2 mps 735 mmHg 85%
    21:00 +7°C° 0.1 mm 1 mps 736 mmHg 87%
    22:00 +7°C° 0.1 mm 1 mps 736 mmHg 88%
    23:00 +7°C° 0 mm 1 mps 736 mmHg 89%

    20 September, Friday

    Time Temperature Precipitation Wind Pressure Humidity
    00:00 +6°C° 0 mm 1 mps 736 mmHg 90%
    01:00 +6°C° 0 mm 1 mps 737 mmHg 91%
    02:00 +6°C° 0 mm 1 mps 737 mmHg 91%
    03:00 +5°C° 0 mm 1 mps 737 mmHg 91%
    04:00 +5°C° 0 mm 1 mps 737 mmHg 91%
    05:00 +5°C° 0 mm 1 mps 737 mmHg 90%
    06:00 +6°C° 0 mm 1 mps 737 mmHg 89%
    07:00 +6°C° 0 mm 1 mps 737 mmHg 88%
    08:00 +8°C° 0 mm 1 mps 738 mmHg 77%
    09:00 +8°C° 0 mm 2 mps 738 mmHg 67%
    10:00 +10°C° 0 mm 2 mps 739 mmHg 56%
    11:00 +10°C° 0 mm 2 mps 738 mmHg 54%
    12:00 +12°C° 0 mm 2 mps 738 mmHg 51%
    13:00 +12°C° 0 mm 2 mps 738 mmHg 48%
    14:00 +12°C° 0 mm 2 mps 738 mmHg 50%
    15:00 +12°C° 0 mm 2 mps 738 mmHg 51%
    16:00 +12°C° 0 mm 2 mps 738 mmHg 53%
    17:00 +9°C° 0 mm 2 mps 738 mmHg 57%
    18:00 +9°C° 0 mm 1 mps 738 mmHg 62%
    19:00 +8°C° 0 mm 1 mps 738 mmHg 67%
    20:00 +7°C° 0 mm 1 mps 738 mmHg 68%
    21:00 +7°C° 0 mm 1 mps 738 mmHg 70%
    22:00 +6°C° 0 mm 2 mps 738 mmHg 71%
    23:00 +5°C° 0 mm 2 mps 738 mmHg 72%
    Show more